This demonstration page uses our WeatherBlox Daily Observations layout. Learn more.

Left ArrowRight Arrow

Hourly Observations for January 2, 2017

Temp ( °F °C ) Dew Point ( °F °C ) Humidity (%) Winds ( mph kmh ) Pressure ( in mb ) Visibility ( mi km ) Precip ( " mm )
12:58 am 00:58 Cloudy 37 2.7 28 -2.2 70 70 ESE 10 17 29.92 1013 10 16 0.00 0.00
1:58 am 01:58 Cloudy 37 2.9 29 -1.8 72 72 E 10 17 29.91 1013 10 16 0.00 0.00
2:58 am 02:58 Cloudy 37 2.8 29 -1.5 74 74 E 8 13 29.91 1013 10 16 0.00 0.00
3:58 am 03:58 Cloudy 37 2.7 30 -1.3 75 75 E 8 13 29.89 1012 10 16 0.00 0.00
4:55 am 04:55 Mostly Cloudy 36 2 32 0 87 87 ESE 9 15 29.85 1011 10 16 0.00 0.00
4:58 am 04:58 Mostly Cloudy 36 2.1 31 -0.8 81 81 ESE 10 17 29.88 1012 10 16 0.00 0.00
5:10 am 05:10 Cloudy 36 2 32 0 87 87 ESE 9 15 29.85 1011 10 16 0.00 0.00
5:58 am 05:58 Cloudy 37 2.6 31 -0.3 81 81 E 5 7 29.88 1012 10 16 0.00 0.00
6:58 am 06:58 Cloudy with Drizzle 36 2.3 33 0.7 89 89 NE 5 7 29.88 1012 7 11 0.00 0.00
7:47 am 07:47 Cloudy with Drizzle 34 1 34 1 100 100 ENE 8 13 29.88 1012 3 5 0.00 0.00
7:58 am 07:58 Cloudy with Drizzle 34 1.2 34 1.2 100 100 ENE 8 13 29.88 1012 3 5 0.00 0.00
8:14 am 08:14 Cloudy with Mist and Fog 34 1 34 1 100 100 ENE 9 15 29.85 1011 3 4 0.00 0.00
8:23 am 08:23 Cloudy with Mist and Fog 34 1 34 1 100 100 ENE 7 11 29.85 1011 4 6 0.00 0.00
8:27 am 08:27 Cloudy with Mist and Fog 34 1 34 1 100 100 ENE 7 11 29.88 1012 4 6 0.00 0.00
8:42 am 08:42 Cloudy with Mist and Fog 34 1 34 1 100 100 ENE 7 11 29.88 1012 4 6 0.00 0.00
8:58 am 08:58 Cloudy with Mist and Fog 35 1.5 35 1.5 100 100 ENE 5 7 29.89 1012 5 8 0.00 0.00
9:43 am 09:43 Cloudy with Mist and Fog 36 2 36 2 100 100 ENE 5 7 29.91 1013 6 10 0.00 0.00
9:58 am 09:58 Cloudy with Mist and Fog 36 2.1 36 2.1 100 100 NE 6 9 29.91 1013 6 10 0.00 0.00
10:16 am 10:16 Cloudy with Mist and Fog 36 2 36 2 100 100 NE 3 6 29.91 1013 6 10 0.00 0.00
10:43 am 10:43 Cloudy with Mist and Fog 36 2 36 2 100 100 NE 7 11 29.88 1012 5 8 0.00 0.00
10:58 am 10:58 Cloudy with Mist and Fog 37 2.5 37 2.5 100 100 NE 6 9 29.88 1012 5 8 0.00 0.00
11:22 am 11:22 Mostly Cloudy with Mist and Fog 37 3 37 3 100 100 NE 5 7 29.88 1012 4 6 0.00 0.00
11:30 am 11:30 Partly Cloudy with Mist and Fog 37 3 37 3 100 100 ENE 7 11 29.88 1012 3 5 0.00 0.00
11:58 am 11:58 Cloudy with Light Rain 37 2.8 37 2.8 100 100 E 6 9 29.88 1012 3 5 0.00 0.03
12:26 pm 12:26 Cloudy with Light Rain 37 3 37 3 100 100 NE 5 7 29.83 1010 3 5 0.00 0.00
12:41 pm 12:41 Cloudy with Light Rain 37 3 37 3 100 100 NE 7 11 29.83 1010 5 8 0.00 0.00
12:46 pm 12:46 Cloudy with Mist and Fog 37 3 37 3 100 100 NE 6 9 29.83 1010 5 8 0.00 0.00
12:58 pm 12:58 Cloudy with Mist and Fog 38 3.3 38 3.3 100 100 NE 7 11 29.83 1010 6 10 0.01 0.25
1:07 pm 13:07 Cloudy with Mist and Fog 37 3 37 3 100 100 NNE 6 9 29.83 1010 6 10 0.00 0.00
1:58 pm 13:58 Cloudy 38 3.4 38 3.4 100 100 ENE 7 11 29.81 1010 7 11 0.00 0.00
2:13 pm 14:13 Cloudy 39 4 39 4 100 100 ENE 6 9 29.80 1009 7 11 0.00 0.00
2:58 pm 14:58 Cloudy with Mist and Fog 38 3.6 38 3.6 100 100 NE 6 9 29.82 1010 5 8 0.00 0.00
3:14 pm 15:14 Cloudy with Light Rain 39 4 39 4 100 100 NNE 5 7 29.83 1010 2 3 0.00 0.00
3:58 pm 15:58 Mostly Cloudy with Light Rain 39 4 39 4 100 100 N 5 7 29.84 1011 2 3 0.01 0.25
4:58 pm 16:58 Cloudy with Drizzle 38 3.3 38 3.3 100 100 N 3 6 29.86 1011 2 3 0.00 0.03
5:58 pm 17:58 Cloudy with Mist and Fog 37 2.8 37 2.8 100 100 N 6 9 29.88 1012 5 8 0.01 0.25
6:22 pm 18:22 Cloudy with Drizzle 37 3 37 3 100 100 NNW 7 11 29.91 1013 3 5 0.00 0.00
6:58 pm 18:58 Cloudy with Mist and Fog 37 2.7 37 2.7 100 100 NNW 8 13 29.91 1013 6 10 0.00 0.03
7:58 pm 19:58 Cloudy with Mist and Fog 36 2.2 36 2.2 100 100 NNW 12 19 29.95 1014 5 8 0.00 0.00
8:19 pm 20:19 Cloudy 36 2 36 2 100 100 NNW 10 17 29.94 1014 10 16 0.00 0.00
8:34 pm 20:34 Cloudy 36 2 36 2 100 100 NNW 12 19 29.97 1015 10 16 0.00 0.00
8:37 pm 20:37 Cloudy 36 2 36 2 100 100 NNW 12 19 29.97 1015 10 16 0.00 0.00
8:49 pm 20:49 Cloudy 36 2 36 2 100 100 NNW 13 20 29.97 1015 10 16 0.00 0.00
8:58 pm 20:58 Cloudy 36 2 36 2 100 100 NNW 13 20 29.98 1015 10 16 0.00 0.00
9:01 pm 21:01 Cloudy 36 2 36 2 100 100 NNW 13 20 29.97 1015 10 16 0.00 0.00
9:06 pm 21:06 Cloudy 36 2 36 2 100 100 NNW 12 19 29.97 1015 10 16 0.00 0.00
9:18 pm 21:18 Cloudy 36 2 36 2 100 100 N 15 24 29.97 1015 10 16 0.00 0.00
9:54 pm 21:54 Cloudy 36 2 36 2 100 100 NNW 15 24 29.97 1015 10 16 0.00 0.00
9:58 pm 21:58 Cloudy 35 1.7 35 1.7 100 100 NNW 16 26 29.99 1016 10 16 0.00 0.00
10:31 pm 22:31 Cloudy 36 2 36 2 100 100 NNW 13 20 30.00 1016 10 16 0.00 0.00
10:55 pm 22:55 Cloudy 36 2 36 2 100 100 NNW 9 15 30.00 1016 10 16 0.00 0.00
11:07 pm 23:07 Cloudy 36 2 36 2 100 100 N 9 15 30.00 1016 10 16 0.00 0.00
11:19 pm 23:19 Cloudy 36 2 36 2 100 100 NNW 8 13 30.00 1016 10 16 0.00 0.00
11:58 pm 23:58 Cloudy 35 1.4 34 1.3 99 99 NNW 14 22 30.02 1017 10 16 0.00 0.00

Powered by AerisWeather